| time (UTC) | temp F | wind direction | speed MPH | gust MPH | rain 1hr in | rain 24hr in | rain mn in | humidity % | barometer mb |
| 20260905141015 | 68 | 173 | 3.0 | 11.0 | 0.00 | 0.00 | 0.00 | 91 | 1015.8 |
| 20260905140516 | 68 | 175 | 4.0 | 10.0 | 0.00 | 0.00 | 0.00 | 92 | 1015.7 |
| 20260905140015 | 67 | 136 | 3.0 | 10.0 | 0.00 | 0.00 | 0.00 | 93 | 1015.8 |
| 20260905135513 | 67 | 145 | 3.0 | 7.0 | 0.00 | 0.00 | 0.00 | 93 | 1015.8 |
| 20260905135014 | 66 | 137 | 3.0 | 7.0 | 0.00 | 0.00 | 0.00 | 94 | 1015.7 |
| 20260905134514 | 66 | 164 | 3.0 | 9.0 | 0.00 | 0.00 | 0.00 | 94 | 1015.6 |
| 20260905134010 | 66 | 140 | 4.0 | 9.0 | 0.00 | 0.00 | 0.00 | 94 | 1015.7 |
| 20260905133510 | 66 | 153 | 3.0 | 9.0 | 0.00 | 0.00 | 0.00 | 94 | 1015.7 |
| 20260905133009 | 66 | 100 | 4.0 | 8.0 | 0.00 | 0.00 | 0.00 | 94 | 1015.8 |
| 20260905132509 | 66 | 147 | 4.0 | 8.0 | 0.00 | 0.00 | 0.00 | 94 | 1015.8 |
| 20260905132007 | 66 | 137 | 2.0 | 8.0 | 0.00 | 0.00 | 0.00 | 94 | 1015.7 |
| 20260905131514 | 66 | 135 | 2.0 | 4.0 | 0.00 | 0.00 | 0.00 | 95 | 1015.7 |
| 20260905131006 | 66 | 86 | 1.0 | 8.0 | 0.00 | 0.00 | 0.00 | 95 | 1015.9 |
| 20260905130506 | 66 | 97 | 3.0 | 8.0 | 0.00 | 0.00 | 0.00 | 95 | 1015.7 |
| 20260905130004 | 65 | 78 | 1.0 | 6.0 | 0.00 | 0.00 | 0.00 | 95 | 1015.8 |
| 20260905125504 | 65 | 119 | 2.0 | 6.0 | 0.00 | 0.00 | 0.00 | 95 | 1016.1 |
| 20260905125001 | 65 | 69 | 1.0 | 6.0 | 0.00 | 0.00 | 0.00 | 95 | 1016.0 |
| 20260905124601 | 65 | 91 | 1.0 | 7.0 | 0.00 | 0.00 | 0.00 | 95 | 1015.7 |
| 20260905124059 | 65 | 154 | 3.0 | 8.0 | 0.00 | 0.00 | 0.00 | 95 | 1015.4 |
| 20260905124001 | 65 | 136 | 2.0 | 8.0 | 0.00 | 0.00 | 0.00 | 95 | 1015.4 |
| 20260905123559 | 65 | 149 | 2.0 | 8.0 | 0.00 | 0.00 | 0.00 | 95 | 1015.3 |
| 20260905123102 | 65 | 137 | 2.0 | 11.0 | 0.00 | 0.00 | 0.00 | 95 | 1015.2 |
| 20260905122559 | 65 | 122 | 5.0 | 11.0 | 0.00 | 0.00 | 0.00 | 95 | 1015.2 |
| 20260905122100 | 65 | 81 | 4.0 | 9.0 | 0.00 | 0.00 | 0.00 | 95 | 1015.2 |
| 20260905121559 | 65 | 93 | 3.0 | 9.0 | 0.00 | 0.00 | 0.00 | 95 | 1015.2 |
| 20260905121058 | 65 | 44 | 3.0 | 8.0 | 0.00 | 0.00 | 0.00 | 95 | 1015.2 |
| 20260905120557 | 65 | 117 | 2.0 | 10.0 | 0.00 | 0.00 | 0.00 | 95 | 1015.2 |
| 20260905120058 | 65 | 72 | 4.0 | 10.0 | 0.00 | 0.00 | 0.00 | 95 | 1015.2 |
| 20260905115557 | 65 | 95 | 4.0 | 9.0 | 0.00 | 0.00 | 0.00 | 95 | 1015.1 |
| 20260905115057 | 65 | 28 | 3.0 | 9.0 | 0.00 | 0.00 | 0.00 | 95 | 1015.0 |
| 20260905114607 | 65 | 115 | 4.0 | 12.0 | 0.00 | 0.00 | 0.00 | 95 | 1014.9 |
| 20260905114057 | 65 | 53 | 5.0 | 12.0 | 0.00 | 0.00 | 0.00 | 95 | 1015.0 |
| 20260905113556 | 65 | 80 | 5.0 | 10.0 | 0.00 | 0.00 | 0.00 | 95 | 1015.0 |
| 20260905113058 | 65 | 87 | 3.0 | 10.0 | 0.00 | 0.00 | 0.00 | 95 | 1015.1 |
| 20260905112556 | 65 | 104 | 5.0 | 10.0 | 0.00 | 0.00 | 0.00 | 95 | 1015.1 |
| 20260905112055 | 65 | 138 | 3.0 | 9.0 | 0.00 | 0.00 | 0.00 | 95 | 1015.1 |
| 20260905111625 | 65 | 114 | 3.0 | 10.0 | 0.00 | 0.00 | 0.00 | 95 | 1015.0 |
| 20260905111055 | 65 | 109 | 3.0 | 10.0 | 0.00 | 0.00 | 0.00 | 95 | 1014.9 |
| 20260905110554 | 65 | 153 | 3.0 | 10.0 | 0.00 | 0.00 | 0.00 | 95 | 1015.1 |
| 20260905110106 | 65 | 159 | 3.0 | 9.0 | 0.00 | 0.00 | 0.00 | 95 | 1015.0 |
| 20260905105555 | 65 | 153 | 3.0 | 9.0 | 0.00 | 0.00 | 0.00 | 95 | 1015.0 |
| 20260905105055 | 65 | 159 | 2.0 | 10.0 | 0.00 | 0.00 | 0.00 | 95 | 1015.1 |
| 20260905104615 | 65 | 128 | 3.0 | 11.0 | 0.00 | 0.00 | 0.00 | 95 | 1015.1 |
| 20260905104056 | 65 | 175 | 4.0 | 11.0 | 0.00 | 0.00 | 0.00 | 95 | 1014.9 |
| 20260905103554 | 64 | 132 | 2.0 | 9.0 | 0.00 | 0.00 | 0.00 | 95 | 1015.0 |
| 20260905103054 | 64 | 163 | 1.0 | 5.0 | 0.00 | 0.00 | 0.00 | 95 | 1015.0 |
| 20260905102553 | 64 | 140 | 2.0 | 4.0 | 0.00 | 0.00 | 0.00 | 95 | 1015.2 |
| 20260905102053 | 64 | 154 | 0.0 | 2.0 | 0.00 | 0.00 | 0.00 | 95 | 1015.2 |
| 20260905101554 | 64 | 184 | 0.0 | 0.0 | 0.00 | 0.00 | 0.00 | 95 | 1015.2 |
| 20260905101052 | 64 | 180 | 0.0 | 0.0 | 0.00 | 0.00 | 0.00 | 94 | 1015.0 |
| 20260905100553 | 64 | 180 | 0.0 | 3.0 | 0.00 | 0.00 | 0.00 | 94 | 1015.0 |
| 20260905100053 | 64 | 180 | 0.0 | 3.0 | 0.00 | 0.00 | 0.00 | 94 | 1014.8 |
| 20260905095552 | 64 | 180 | 1.0 | 3.0 | 0.00 | 0.00 | 0.00 | 94 | 1014.8 |
| 20260905095052 | 64 | 112 | 1.0 | 3.0 | 0.00 | 0.00 | 0.00 | 94 | 1014.4 |
| 20260905094704 | 64 | 164 | 0.0 | 2.0 | 0.00 | 0.00 | 0.00 | 94 | 1014.4 |
| 20260905094050 | 64 | 164 | 0.0 | 2.0 | 0.00 | 0.00 | 0.00 | 94 | 1014.5 |
| 20260905093550 | 64 | 164 | 0.0 | 3.0 | 0.00 | 0.00 | 0.00 | 94 | 1014.4 |
| 20260905093057 | 64 | 164 | 1.0 | 3.0 | 0.00 | 0.00 | 0.00 | 94 | 1014.3 |
| 20260905092551 | 65 | 107 | 0.0 | 4.0 | 0.00 | 0.00 | 0.00 | 94 | 1014.1 |
| 20260905092049 | 65 | 107 | 1.0 | 5.0 | 0.00 | 0.00 | 0.00 | 94 | 1014.0 |
| 20260905091555 | 65 | 94 | 2.0 | 8.0 | 0.00 | 0.00 | 0.00 | 94 | 1013.8 |
| 20260905091048 | 65 | 104 | 3.0 | 8.0 | 0.00 | 0.00 | 0.00 | 94 | 1013.9 |
| 20260905090548 | 65 | 102 | 1.0 | 8.0 | 0.00 | 0.00 | 0.00 | 94 | 1013.9 |
| 20260905090048 | 65 | 91 | 3.0 | 8.0 | 0.00 | 0.00 | 0.00 | 93 | 1013.8 |
| 20260905085548 | 65 | 111 | 2.0 | 8.0 | 0.00 | 0.00 | 0.00 | 93 | 1013.9 |
| 20260905085047 | 65 | 118 | 2.0 | 8.0 | 0.00 | 0.00 | 0.00 | 93 | 1013.8 |
| 20260905084558 | 65 | 80 | 2.0 | 7.0 | 0.00 | 0.00 | 0.00 | 93 | 1013.9 |
| 20260905084048 | 65 | 98 | 4.0 | 8.0 | 0.00 | 0.00 | 0.00 | 93 | 1014.1 |
| 20260905083545 | 65 | 84 | 3.0 | 8.0 | 0.00 | 0.00 | 0.00 | 93 | 1014.0 |
| 20260905083045 | 65 | 103 | 2.0 | 7.0 | 0.00 | 0.00 | 0.00 | 93 | 1014.1 |
| 20260905082545 | 65 | 107 | 2.0 | 8.0 | 0.00 | 0.00 | 0.00 | 93 | 1014.2 |
| 20260905082043 | 66 | 80 | 3.0 | 8.0 | 0.00 | 0.00 | 0.00 | 93 | 1014.3 |
| 20260905081543 | 66 | 90 | 2.0 | 8.0 | 0.00 | 0.00 | 0.00 | 93 | 1014.2 |
| 20260905081042 | 66 | 76 | 1.0 | 6.0 | 0.00 | 0.00 | 0.00 | 92 | 1014.3 |
| 20260905080541 | 66 | 133 | 1.0 | 6.0 | 0.00 | 0.00 | 0.00 | 92 | 1014.4 |
| 20260905080039 | 66 | 90 | 2.0 | 6.0 | 0.00 | 0.00 | 0.00 | 92 | 1014.5 |
| 20260905075538 | 66 | 136 | 2.0 | 5.0 | 0.00 | 0.00 | 0.00 | 92 | 1014.9 |
| 20260905075042 | 67 | 141 | 2.0 | 7.0 | 0.00 | 0.00 | 0.00 | 92 | 1014.9 |
| 20260905074538 | 67 | 99 | 1.0 | 8.0 | 0.00 | 0.00 | 0.00 | 92 | 1015.0 |
| 20260905074037 | 67 | 207 | 2.0 | 9.0 | 0.00 | 0.00 | 0.00 | 92 | 1014.8 |
| 20260905073536 | 67 | 94 | 3.0 | 9.0 | 0.00 | 0.00 | 0.00 | 92 | 1014.7 |
| 20260905073035 | 67 | 132 | 2.0 | 9.0 | 0.00 | 0.00 | 0.00 | 92 | 1014.6 |
| 20260905072534 | 67 | 94 | 3.0 | 8.0 | 0.00 | 0.00 | 0.00 | 92 | 1014.6 |
| 20260905072034 | 67 | 74 | 2.0 | 9.0 | 0.00 | 0.00 | 0.00 | 92 | 1014.7 |
| 20260905071537 | 67 | 70 | 4.0 | 9.0 | 0.00 | 0.00 | 0.00 | 92 | 1014.8 |
| 20260905071034 | 67 | 82 | 4.0 | 8.0 | 0.00 | 0.00 | 0.00 | 92 | 1014.8 |
| 20260905070533 | 67 | 111 | 3.0 | 7.0 | 0.00 | 0.00 | 0.00 | 91 | 1014.8 |
| 20260905070033 | 68 | 140 | 1.0 | 7.0 | 0.00 | 0.00 | 0.00 | 91 | 1015.0 |
| 20260905065534 | 68 | 54 | 2.0 | 5.0 | 0.00 | 0.00 | 0.00 | 91 | 1015.1 |
| 20260905065032 | 68 | 91 | 3.0 | 7.0 | 0.00 | 0.00 | 0.00 | 91 | 1015.1 |
| 20260905064532 | 68 | 173 | 3.0 | 7.0 | 0.00 | 0.00 | 0.00 | 91 | 1015.2 |
| 20260905064031 | 68 | 120 | 2.0 | 6.0 | 0.00 | 0.00 | 0.00 | 91 | 1015.1 |
| 20260905063530 | 68 | 93 | 2.0 | 8.0 | 0.00 | 0.00 | 0.00 | 91 | 1015.1 |
| 20260905063031 | 68 | 68 | 2.0 | 8.0 | 0.00 | 0.00 | 0.00 | 91 | 1015.0 |
| 20260905062531 | 68 | 85 | 4.0 | 8.0 | 0.00 | 0.00 | 0.00 | 90 | 1015.0 |
| 20260905062030 | 68 | 129 | 1.0 | 6.0 | 0.00 | 0.00 | 0.00 | 90 | 1015.2 |
| 20260905061544 | 68 | 88 | 1.0 | 6.0 | 0.00 | 0.00 | 0.00 | 90 | 1015.1 |
| 20260905061028 | 68 | 105 | 1.0 | 6.0 | 0.00 | 0.00 | 0.00 | 90 | 1015.1 |
| 20260905060528 | 68 | 138 | 2.0 | 5.0 | 0.00 | 0.00 | 0.00 | 90 | 1015.3 |
| 20260905060047 | 69 | 149 | 3.0 | 6.0 | 0.00 | 0.00 | 0.00 | 89 | 1015.3 |
| 20260905055527 | 69 | 111 | 2.0 | 6.0 | 0.00 | 0.00 | 0.00 | 89 | 1015.2 |
| 20260905055026 | 69 | 165 | 3.0 | 8.0 | 0.00 | 0.00 | 0.00 | 89 | 1015.2 |
| 20260905054534 | 69 | 56 | 3.0 | 10.0 | 0.00 | 0.00 | 0.00 | 89 | 1014.9 |
| 20260905054024 | 69 | 128 | 5.0 | 11.0 | 0.00 | 0.00 | 0.00 | 89 | 1014.7 |
| 20260905053524 | 69 | 116 | 4.0 | 11.0 | 0.00 | 0.00 | 0.00 | 88 | 1014.7 |
| 20260905053022 | 69 | 84 | 3.0 | 10.0 | 0.00 | 0.00 | 0.00 | 88 | 1014.7 |
| 20260905052521 | 70 | 74 | 4.0 | 9.0 | 0.00 | 0.00 | 0.00 | 88 | 1014.7 |
| 20260905052021 | 70 | 355 | 2.0 | 9.0 | 0.00 | 0.00 | 0.00 | 88 | 1014.8 |
| 20260905051530 | 70 | 69 | 5.0 | 10.0 | 0.00 | 0.00 | 0.00 | 88 | 1014.6 |
| 20260905051022 | 70 | 88 | 5.0 | 10.0 | 0.00 | 0.00 | 0.00 | 87 | 1014.6 |
| 20260905050518 | 70 | 79 | 2.0 | 9.0 | 0.00 | 0.00 | 0.00 | 87 | 1014.7 |
| 20260905050017 | 70 | 67 | 3.0 | 10.0 | 0.00 | 0.00 | 0.00 | 87 | 1014.6 |
| 20260905045521 | 70 | 105 | 4.0 | 11.0 | 0.00 | 0.00 | 0.00 | 87 | 1014.5 |
| 20260905045016 | 70 | 109 | 5.0 | 11.0 | 0.00 | 0.00 | 0.00 | 87 | 1014.6 |
| 20260905044516 | 70 | 126 | 5.0 | 10.0 | 0.00 | 0.00 | 0.00 | 87 | 1014.6 |
| 20260905044014 | 71 | 73 | 3.0 | 8.0 | 0.00 | 0.00 | 0.00 | 86 | 1014.8 |
| 20260905043518 | 71 | 79 | 3.0 | 9.0 | 0.00 | 0.00 | 0.00 | 86 | 1014.7 |
| 20260905043018 | 71 | 100 | 3.0 | 10.0 | 0.00 | 0.00 | 0.00 | 86 | 1014.9 |
| 20260905042514 | 71 | 94 | 4.0 | 10.0 | 0.00 | 0.00 | 0.00 | 86 | 1014.8 |
| 20260905042014 | 71 | 69 | 4.0 | 9.0 | 0.00 | 0.00 | 0.00 | 85 | 1014.8 |
| 20260905041514 | 72 | 82 | 4.0 | 9.0 | 0.00 | 0.00 | 0.00 | 85 | 1014.8 |
| 20260905041016 | 72 | 84 | 2.0 | 8.0 | 0.00 | 0.00 | 0.00 | 85 | 1014.8 |
| 20260905040514 | 72 | 96 | 3.0 | 9.0 | 0.00 | 0.00 | 0.00 | 85 | 1014.8 |
| 20260905040018 | 72 | 59 | 3.0 | 10.0 | 0.00 | 0.00 | 0.00 | 85 | 1014.6 |
| 20260905035513 | 72 | 105 | 3.0 | 10.0 | 0.00 | 0.00 | 0.00 | 84 | 1014.5 |
| 20260905035014 | 72 | 77 | 5.0 | 10.0 | 0.00 | 0.00 | 0.00 | 84 | 1014.5 |
| 20260905034515 | 73 | 99 | 5.0 | 10.0 | 0.00 | 0.00 | 0.00 | 84 | 1014.5 |
| 20260905034012 | 73 | 93 | 6.0 | 11.0 | 0.00 | 0.00 | 0.00 | 83 | 1014.4 |
| 20260905033512 | 73 | 99 | 6.0 | 11.0 | 0.00 | 0.00 | 0.00 | 83 | 1014.4 |
| 20260905033012 | 73 | 73 | 6.0 | 10.0 | 0.00 | 0.00 | 0.00 | 83 | 1014.5 |
| 20260905032512 | 74 | 55 | 5.0 | 9.0 | 0.00 | 0.00 | 0.00 | 82 | 1014.6 |
| 20260905032012 | 74 | 134 | 5.0 | 10.0 | 0.00 | 0.00 | 0.00 | 82 | 1014.8 |
| 20260905031516 | 74 | 86 | 3.0 | 10.0 | 0.00 | 0.00 | 0.00 | 81 | 1014.7 |
| 20260905031012 | 74 | 67 | 5.0 | 10.0 | 0.00 | 0.00 | 0.00 | 81 | 1014.7 |
| 20260905030511 | 74 | 117 | 3.0 | 6.0 | 0.00 | 0.00 | 0.00 | 81 | 1014.7 |
| 20260905030011 | 75 | 87 | 2.0 | 7.0 | 0.00 | 0.00 | 0.00 | 80 | 1014.8 |
| 20260905025510 | 75 | 124 | 2.0 | 7.0 | 0.00 | 0.00 | 0.00 | 79 | 1014.9 |
| 20260905025009 | 75 | 38 | 2.0 | 8.0 | 0.00 | 0.00 | 0.00 | 79 | 1014.7 |
| 20260905024513 | 75 | 123 | 3.0 | 9.0 | 0.00 | 0.00 | 0.00 | 79 | 1014.7 |
| 20260905024007 | 75 | 65 | 3.0 | 9.0 | 0.00 | 0.00 | 0.00 | 78 | 1014.5 |
| 20260905023507 | 75 | 69 | 4.0 | 9.0 | 0.00 | 0.00 | 0.00 | 77 | 1014.5 |
| 20260905023016 | 76 | 80 | 4.0 | 9.0 | 0.00 | 0.00 | 0.00 | 77 | 1014.5 |
| 20260905022507 | 76 | 98 | 4.0 | 8.0 | 0.00 | 0.00 | 0.00 | 76 | 1014.4 |
| 20260905022007 | 76 | 79 | 4.0 | 8.0 | 0.00 | 0.00 | 0.00 | 75 | 1014.5 |
| 20260905021507 | 77 | 106 | 4.0 | 8.0 | 0.00 | 0.00 | 0.00 | 74 | 1014.4 |
| 20260905021006 | 77 | 91 | 4.0 | 8.0 | 0.00 | 0.00 | 0.00 | 73 | 1014.3 |
| 20260905020504 | 77 | 90 | 4.0 | 9.0 | 0.00 | 0.00 | 0.00 | 72 | 1014.2 |
| 20260905020004 | 78 | 88 | 3.0 | 9.0 | 0.00 | 0.00 | 0.00 | 71 | 1014.1 |
| 20260905015505 | 78 | 83 | 4.0 | 7.0 | 0.00 | 0.00 | 0.00 | 70 | 1014.0 |
| 20260905015005 | 79 | 69 | 4.0 | 6.0 | 0.00 | 0.00 | 0.00 | 69 | 1014.0 |
| 20260905014504 | 79 | 73 | 2.0 | 7.0 | 0.00 | 0.00 | 0.00 | 68 | 1014.0 |
| 20260905014003 | 79 | 115 | 4.0 | 8.0 | 0.00 | 0.00 | 0.00 | 67 | 1013.9 |
| 20260905013504 | 80 | 78 | 3.0 | 9.0 | 0.00 | 0.00 | 0.00 | 66 | 1013.7 |
| 20260905013006 | 80 | 107 | 4.0 | 9.0 | 0.00 | 0.00 | 0.00 | 66 | 1013.6 |
| 20260905012503 | 80 | 74 | 3.0 | 8.0 | 0.00 | 0.00 | 0.00 | 64 | 1013.6 |
| 20260905012003 | 80 | 78 | 4.0 | 8.0 | 0.00 | 0.00 | 0.00 | 64 | 1013.4 |
| 20260905011503 | 81 | 103 | 5.0 | 8.0 | 0.00 | 0.00 | 0.00 | 64 | 1013.4 |
| 20260905011004 | 81 | 85 | 2.0 | 7.0 | 0.00 | 0.00 | 0.00 | 63 | 1013.4 |
| 20260905010501 | 81 | 69 | 3.0 | 5.0 | 0.00 | 0.00 | 0.00 | 63 | 1013.4 |
| 20260905010002 | 81 | 81 | 2.0 | 7.0 | 0.00 | 0.00 | 0.00 | 63 | 1013.4 |
| 20260905005502 | 82 | 103 | 3.0 | 7.0 | 0.00 | 0.00 | 0.00 | 63 | 1013.5 |
| 20260905005002 | 82 | 85 | 2.0 | 6.0 | 0.00 | 0.00 | 0.00 | 63 | 1013.4 |
| 20260905004502 | 82 | 98 | 2.0 | 8.0 | 0.00 | 0.00 | 0.00 | 63 | 1013.5 |
| 20260905004001 | 82 | 71 | 4.0 | 8.0 | 0.00 | 0.00 | 0.00 | 62 | 1013.5 |
| 20260905003501 | 83 | 98 | 3.0 | 7.0 | 0.00 | 0.00 | 0.00 | 62 | 1013.4 |
| 20260905003008 | 83 | 105 | 2.0 | 8.0 | 0.00 | 0.00 | 0.00 | 61 | 1013.4 |
| 20260905002501 | 83 | 106 | 3.0 | 8.0 | 0.00 | 0.00 | 0.00 | 60 | 1013.3 |
| 20260905002003 | 84 | 107 | 3.0 | 9.0 | 0.00 | 0.00 | 0.00 | 59 | 1013.3 |
| 20260905001501 | 84 | 93 | 4.0 | 9.0 | 0.00 | 0.00 | 0.00 | 58 | 1013.2 |
| 20260905001100 | 84 | 97 | 3.0 | 9.0 | 0.00 | 0.00 | 0.00 | 57 | 1013.3 |
| 20260905000604 | 84 | 90 | 4.0 | 9.0 | 0.00 | 0.00 | 0.00 | 58 | 1013.3 |
| 20260905000100 | 84 | 107 | 5.0 | 10.0 | 0.00 | 0.00 | 0.00 | 57 | 1013.3 |
| 20260904235600 | 85 | 72 | 5.0 | 10.0 | 0.00 | 0.00 | 0.00 | 57 | 1013.1 |
| 20260904235104 | 85 | 111 | 5.0 | 9.0 | 0.00 | 0.00 | 0.00 | 57 | 1013.1 |
| 20260904234600 | 85 | 114 | 5.0 | 9.0 | 0.00 | 0.00 | 0.00 | 56 | 1013.1 |
| 20260904234100 | 85 | 65 | 3.0 | 9.0 | 0.00 | 0.00 | 0.00 | 57 | 1013.0 |
| 20260904233600 | 85 | 69 | 4.0 | 9.0 | 0.00 | 0.00 | 0.00 | 57 | 1013.2 |
| 20260904233059 | 85 | 105 | 4.0 | 8.0 | 0.00 | 0.00 | 0.00 | 56 | 1013.0 |
| 20260904232559 | 85 | 101 | 3.0 | 8.0 | 0.00 | 0.00 | 0.00 | 55 | 1013.1 |
| 20260904232058 | 85 | 96 | 4.0 | 9.0 | 0.00 | 0.00 | 0.00 | 55 | 1013.0 |
| 20260904231559 | 85 | 78 | 4.0 | 9.0 | 0.00 | 0.00 | 0.00 | 55 | 1013.0 |
| 20260904231058 | 85 | 95 | 4.0 | 9.0 | 0.00 | 0.00 | 0.00 | 55 | 1013.1 |
| 20260904230558 | 86 | 107 | 3.0 | 9.0 | 0.00 | 0.00 | 0.00 | 55 | 1013.2 |
| 20260904230109 | 86 | 71 | 3.0 | 9.0 | 0.00 | 0.00 | 0.00 | 54 | 1013.2 |
| 20260904225558 | 86 | 51 | 4.0 | 9.0 | 0.00 | 0.00 | 0.00 | 53 | 1013.0 |
| 20260904225058 | 87 | 119 | 3.0 | 8.0 | 0.00 | 0.00 | 0.00 | 53 | 1013.0 |
| 20260904224620 | 87 | 84 | 3.0 | 7.0 | 0.00 | 0.00 | 0.00 | 53 | 1013.2 |
| 20260904224057 | 87 | 94 | 3.0 | 7.0 | 0.00 | 0.00 | 0.00 | 53 | 1013.2 |
| 20260904223558 | 87 | 77 | 1.0 | 8.0 | 0.00 | 0.00 | 0.00 | 53 | 1013.3 |
| 20260904223109 | 87 | 10 | 2.0 | 9.0 | 0.00 | 0.00 | 0.00 | 53 | 1013.2 |
| 20260904222558 | 87 | 64 | 4.0 | 11.0 | 0.00 | 0.00 | 0.00 | 53 | 1013.2 |
| 20260904222057 | 87 | 131 | 3.0 | 11.0 | 0.00 | 0.00 | 0.00 | 52 | 1013.1 |
| 20260904221624 | 87 | 171 | 3.0 | 6.0 | 0.00 | 0.00 | 0.00 | 51 | 1013.1 |
| 20260904221056 | 87 | 115 | 1.0 | 10.0 | 0.00 | 0.00 | 0.00 | 51 | 1013.2 |
| 20260904220556 | 87 | 115 | 5.0 | 9.0 | 0.00 | 0.00 | 0.00 | 52 | 1013.3 |
| 20260904220056 | 87 | 118 | 2.0 | 6.0 | 0.00 | 0.00 | 0.00 | 53 | 1013.1 |
| 20260904215559 | 87 | 113 | 1.0 | 8.0 | 0.00 | 0.00 | 0.00 | 53 | 1013.2 |
| 20260904215058 | 87 | 126 | 4.0 | 8.0 | 0.00 | 0.00 | 0.00 | 53 | 1013.2 |
| 20260904214555 | 86 | 67 | 3.0 | 7.0 | 0.00 | 0.00 | 0.00 | 53 | 1013.1 |
| 20260904214055 | 87 | 56 | 4.0 | 7.0 | 0.00 | 0.00 | 0.00 | 52 | 1013.2 |
| 20260904213555 | 87 | 46 | 3.0 | 6.0 | 0.00 | 0.00 | 0.00 | 53 | 1013.2 |
| 20260904213059 | 87 | 355 | 2.0 | 6.0 | 0.00 | 0.00 | 0.00 | 52 | 1013.2 |
| 20260904212555 | 87 | 42 | 4.0 | 8.0 | 0.00 | 0.00 | 0.00 | 51 | 1013.3 |
| 20260904212058 | 87 | 97 | 1.0 | 8.0 | 0.00 | 0.00 | 0.00 | 52 | 1013.3 |
| 20260904211555 | 87 | 95 | 4.0 | 8.0 | 0.00 | 0.00 | 0.00 | 52 | 1013.2 |
| 20260904211054 | 87 | 65 | 3.0 | 6.0 | 0.00 | 0.00 | 0.00 | 53 | 1013.4 |
| 20260904210554 | 87 | 38 | 3.0 | 11.0 | 0.00 | 0.00 | 0.00 | 54 | 1013.3 |
| 20260904210057 | 86 | 49 | 5.0 | 11.0 | 0.00 | 0.00 | 0.00 | 54 | 1013.3 |
| 20260904205554 | 86 | 48 | 4.0 | 8.0 | 0.00 | 0.00 | 0.00 | 54 | 1013.4 |
| 20260904205053 | 86 | 94 | 3.0 | 9.0 | 0.00 | 0.00 | 0.00 | 53 | 1013.4 |
| 20260904204553 | 87 | 65 | 4.0 | 10.0 | 0.00 | 0.00 | 0.00 | 53 | 1013.5 |
| 20260904204056 | 87 | 79 | 5.0 | 10.0 | 0.00 | 0.00 | 0.00 | 53 | 1013.5 |
| 20260904203554 | 87 | 67 | 4.0 | 9.0 | 0.00 | 0.00 | 0.00 | 54 | 1013.5 |
| 20260904203052 | 87 | 98 | 3.0 | 9.0 | 0.00 | 0.00 | 0.00 | 54 | 1013.6 |
| 20260904202553 | 87 | 68 | 3.0 | 9.0 | 0.00 | 0.00 | 0.00 | 54 | 1013.6 |
| 20260904202052 | 87 | 68 | 3.0 | 9.0 | 0.00 | 0.00 | 0.00 | 54 | 1013.7 |
| 20260904201603 | 87 | 79 | 1.0 | 7.0 | 0.00 | 0.00 | 0.00 | 54 | 1013.5 |
| 20260904201050 | 87 | 113 | 3.0 | 9.0 | 0.00 | 0.00 | 0.00 | 53 | 1013.7 |
| 20260904200550 | 86 | 105 | 3.0 | 8.0 | 0.00 | 0.00 | 0.00 | 54 | 1013.7 |
| 20260904200109 | 86 | 67 | 3.0 | 9.0 | 0.00 | 0.00 | 0.00 | 54 | 1013.6 |
| 20260904195549 | 86 | 15 | 3.0 | 9.0 | 0.00 | 0.00 | 0.00 | 54 | 1013.6 |
| 20260904195049 | 86 | 51 | 2.0 | 7.0 | 0.00 | 0.00 | 0.00 | 55 | 1013.6 |
| 20260904194552 | 86 | 100 | 4.0 | 9.0 | 0.00 | 0.00 | 0.00 | 54 | 1013.6 |
| 20260904194048 | 86 | 82 | 5.0 | 9.0 | 0.00 | 0.00 | 0.00 | 55 | 1013.6 |
| 20260904193548 | 86 | 81 | 3.0 | 8.0 | 0.00 | 0.00 | 0.00 | 54 | 1013.7 |
| 20260904193048 | 86 | 56 | 2.0 | 8.0 | 0.00 | 0.00 | 0.00 | 56 | 1013.8 |
| 20260904192547 | 86 | 36 | 3.0 | 9.0 | 0.00 | 0.00 | 0.00 | 55 | 1013.9 |
| 20260904192049 | 86 | 84 | 5.0 | 10.0 | 0.00 | 0.00 | 0.00 | 55 | 1013.9 |
| 20260904191548 | 85 | 103 | 6.0 | 10.0 | 0.00 | 0.00 | 0.00 | 56 | 1013.9 |
| 20260904191045 | 85 | 111 | 4.0 | 11.0 | 0.00 | 0.00 | 0.00 | 54 | 1013.9 |
| 20260904190544 | 85 | 96 | 5.0 | 11.0 | 0.00 | 0.00 | 0.00 | 58 | 1013.9 |
| 20260904190043 | 85 | 83 | 3.0 | 10.0 | 0.00 | 0.00 | 0.00 | 57 | 1013.9 |
| 20260904185543 | 85 | 80 | 4.0 | 10.0 | 0.00 | 0.00 | 0.00 | 56 | 1014.0 |
| 20260904185045 | 84 | 113 | 1.0 | 10.0 | 0.00 | 0.00 | 0.00 | 61 | 1014.0 |
| 20260904184543 | 84 | 66 | 5.0 | 12.0 | 0.00 | 0.00 | 0.00 | 59 | 1014.1 |
| 20260904184041 | 85 | 105 | 3.0 | 8.0 | 0.00 | 0.00 | 0.00 | 60 | 1014.1 |
| 20260904183541 | 84 | 59 | 2.0 | 10.0 | 0.00 | 0.00 | 0.00 | 61 | 1014.2 |
| 20260904183042 | 84 | 16 | 3.0 | 7.0 | 0.00 | 0.00 | 0.00 | 60 | 1014.2 |
| 20260904182539 | 84 | 42 | 2.0 | 7.0 | 0.00 | 0.00 | 0.00 | 59 | 1014.1 |
| 20260904182039 | 84 | 355 | 3.0 | 8.0 | 0.00 | 0.00 | 0.00 | 59 | 1014.1 |
| 20260904181538 | 83 | 360 | 2.0 | 6.0 | 0.00 | 0.00 | 0.00 | 62 | 1014.1 |
| 20260904181037 | 84 | 74 | 3.0 | 10.0 | 0.00 | 0.00 | 0.00 | 61 | 1014.2 |
| 20260904180536 | 83 | 360 | 4.0 | 10.0 | 0.00 | 0.00 | 0.00 | 62 | 1014.2 |
| 20260904180037 | 82 | 35 | 3.0 | 11.0 | 0.00 | 0.00 | 0.00 | 62 | 1014.1 |
| 20260904175539 | 82 | 49 | 3.0 | 11.0 | 0.00 | 0.00 | 0.00 | 63 | 1014.2 |
| 20260904175034 | 82 | 24 | 3.0 | 9.0 | 0.00 | 0.00 | 0.00 | 64 | 1014.2 |
| 20260904174533 | 83 | 54 | 5.0 | 9.0 | 0.00 | 0.00 | 0.00 | 64 | 1014.2 |
| 20260904174032 | 82 | 304 | 1.0 | 10.0 | 0.00 | 0.00 | 0.00 | 65 | 1014.1 |
| 20260904173531 | 82 | 349 | 2.0 | 12.0 | 0.00 | 0.00 | 0.00 | 65 | 1014.1 |
| 20260904173030 | 82 | 17 | 6.0 | 12.0 | 0.00 | 0.00 | 0.00 | 66 | 1014.1 |
| 20260904172530 | 81 | 21 | 4.0 | 9.0 | 0.00 | 0.00 | 0.00 | 67 | 1014.1 |
| 20260904172028 | 81 | 25 | 3.0 | 10.0 | 0.00 | 0.00 | 0.00 | 66 | 1014.1 |
| 20260904171551 | 81 | 92 | 4.0 | 10.0 | 0.00 | 0.00 | 0.00 | 67 | 1014.1 |
| 20260904171024 | 80 | 10 | 4.0 | 9.0 | 0.00 | 0.00 | 0.00 | 68 | 1014.1 |
| 20260904170528 | 80 | 22 | 2.0 | 10.0 | 0.00 | 0.00 | 0.00 | 69 | 1014.0 |
| 20260904170022 | 80 | 57 | 3.0 | 10.0 | 0.00 | 0.00 | 0.00 | 69 | 1014.2 |
| 20260904165525 | 79 | 35 | 4.0 | 8.0 | 0.00 | 0.00 | 0.00 | 69 | 1014.1 |
| 20260904165019 | 79 | 21 | 4.0 | 8.0 | 0.00 | 0.00 | 0.00 | 71 | 1014.1 |
| 20260904164520 | 78 | 331 | 2.0 | 6.0 | 0.00 | 0.00 | 0.00 | 72 | 1014.2 |
| 20260904164021 | 78 | 35 | 2.0 | 8.0 | 0.00 | 0.00 | 0.00 | 72 | 1014.1 |
| 20260904163517 | 79 | 15 | 2.0 | 8.0 | 0.00 | 0.00 | 0.00 | 74 | 1014.0 |
| 20260904163036 | 78 | 15 | 1.0 | 6.0 | 0.00 | 0.00 | 0.00 | 74 | 1014.0 |
| 20260904162515 | 77 | 355 | 2.0 | 6.0 | 0.00 | 0.00 | 0.00 | 75 | 1014.0 |
| 20260904162016 | 77 | 5 | 2.0 | 6.0 | 0.00 | 0.00 | 0.00 | 75 | 1014.1 |
| 20260904161512 | 77 | 46 | 3.0 | 8.0 | 0.00 | 0.00 | 0.00 | 76 | 1014.1 |
| 20260904161010 | 77 | 5 | 2.0 | 10.0 | 0.00 | 0.00 | 0.00 | 77 | 1014.1 |
| 20260904160509 | 76 | 16 | 4.0 | 10.0 | 0.00 | 0.00 | 0.00 | 78 | 1014.1 |
| 20260904160008 | 76 | 5 | 3.0 | 8.0 | 0.00 | 0.00 | 0.00 | 80 | 1014.0 |
| 20260904155506 | 75 | 88 | 3.0 | 9.0 | 0.00 | 0.00 | 0.00 | 78 | 1014.0 |
| 20260904155005 | 75 | 333 | 2.0 | 9.0 | 0.00 | 0.00 | 0.00 | 80 | 1013.9 |
| 20260904154505 | 75 | 11 | 3.0 | 8.0 | 0.00 | 0.00 | 0.00 | 81 | 1013.8 |
| 20260904154003 | 75 | 84 | 3.0 | 7.0 | 0.00 | 0.00 | 0.00 | 79 | 1013.8 |
| 20260904153502 | 75 | 53 | 2.0 | 7.0 | 0.00 | 0.00 | 0.00 | 80 | 1013.8 |
| 20260904153115 | 75 | 5 | 2.0 | 7.0 | 0.00 | 0.00 | 0.00 | 81 | 1013.9 |
| 20260904152558 | 74 | 24 | 2.0 | 7.0 | 0.00 | 0.00 | 0.00 | 81 | 1013.8 |
| 20260904152057 | 74 | 355 | 3.0 | 8.0 | 0.00 | 0.00 | 0.00 | 81 | 1013.8 |
| 20260904151556 | 74 | 9 | 3.0 | 8.0 | 0.00 | 0.00 | 0.00 | 82 | 1013.9 |
| 20260904151054 | 73 | 9 | 1.0 | 6.0 | 0.00 | 0.00 | 0.00 | 82 | 1013.9 |
| 20260904150552 | 73 | 24 | 2.0 | 5.0 | 0.00 | 0.00 | 0.00 | 83 | 1013.9 |
| 20260904150053 | 72 | 343 | 1.0 | 5.0 | 0.00 | 0.00 | 0.00 | 84 | 1013.9 |
| 20260904145549 | 72 | 335 | 2.0 | 5.0 | 0.00 | 0.00 | 0.00 | 85 | 1013.8 |
| 20260904145049 | 71 | 9 | 2.0 | 4.0 | 0.00 | 0.00 | 0.00 | 84 | 1013.8 |
| 20260904144554 | 72 | 16 | 1.0 | 3.0 | 0.00 | 0.00 | 0.00 | 84 | 1013.8 |
| 20260904144045 | 71 | 73 | 1.0 | 4.0 | 0.00 | 0.00 | 0.00 | 85 | 1013.7 |
| 20260904143544 | 71 | 18 | 1.0 | 4.0 | 0.00 | 0.00 | 0.00 | 87 | 1013.9 |
| 20260904143054 | 70 | 51 | 1.0 | 4.0 | 0.00 | 0.00 | 0.00 | 87 | 1013.7 |
| 20260904142541 | 69 | 19 | 1.0 | 5.0 | 0.00 | 0.00 | 0.00 | 90 | 1013.8 |
| 20260904142040 | 68 | 5 | 3.0 | 5.0 | 0.00 | 0.00 | 0.00 | 90 | 1013.8 |
| 20260904141540 | 67 | 43 | 2.0 | 5.0 | 0.00 | 0.00 | 0.00 | 90 | 1013.9 |
| 20260904141036 | 67 | 20 | 1.0 | 5.0 | 0.00 | 0.00 | 0.00 | 91 | 1013.9 |